Regional Weather Roundup
Issued by NWS

Home | Current Version | Previous Version | Graphics & Text | Print | Product List | Glossary On
Versions: 1 2 3 4 5 6 7 8 9 10 11 12 13 14 15 16 17 18 19 20 21 22 23 24 25 26 27 28 29 30 31 32 33 34 35 36 37 38 39 40 41 42 43 44 45 46 47 48 49 50
000
ASUS45 KBOI 251810
RWRID
WEATHER ROUNDUP FOR IDAHO
NATIONAL WEATHER SERVICE BOISE ID
1200 PM MDT SAT APR 25 2015

NOTE: "FAIR" INDICATES FEW OR NO CLOUDS BELOW 12000 FEET
WITH NO SIGNIFICANT WEATHER AND/OR OBSTRUCTIONS TO VISIBILITY

IDZ012-014-251900-
SOUTHWEST IDAHO


CITY           SKY/WX    TMP DP  RH WIND       PRES   REMARKS
BOISE          MOSUNNY   54  31  41 NW12      29.80F
CALDWELL       MOSUNNY   55  30  38 NW9       29.83S
MOUNTAIN HOME  PTSUNNY   55  28  36 NW9       29.79F
$$

IDZ016-017-251900-
SOUTHCENTRAL IDAHO


CITY           SKY/WX    TMP DP  RH WIND       PRES   REMARKS
BURLEY         PTSUNNY   49  30  48 CALM      29.77F
JEROME         PTSUNNY   49  30  48 NW5       29.80F
TWIN FALLS     CLOUDY    50  30  46 N7        29.79F
$$

IDZ019>023-251900-
SOUTHEAST IDAHO


CITY           SKY/WX    TMP DP  RH WIND       PRES   REMARKS
IDAHO FALLS    PTSUNNY   51  31  46 S15       29.81F
POCATELLO      MOSUNNY   49  31  49 NW3       29.81F
REXBURG        MOSUNNY   47  33  58 SW12      29.80S
$$

IDZ006-010-011-018-031-032-251900-
CENTRAL IDAHO MOUNTAINS


CITY           SKY/WX    TMP DP  RH WIND       PRES   REMARKS
MCCALL         LGT SNOW  37  27  67 VRB7      29.79R WCI  32
HAILEY         PTSUNNY   45  32  61 SE12G17   29.79F
STANLEY          N/A     37  29  72 N7        29.78R WCI  32
SALMON         MOSUNNY   46  23  39 E5        29.79F
CHALLIS        MOSUNNY   46  22  38 VRB6      29.77F
$$

IDZ002-004-006-007-026-251900-
NORTHERN IDAHO


CITY           SKY/WX    TMP DP  RH WIND       PRES   REMARKS
LEWISTON       PTSUNNY   54  34  46 W10       29.88F
LOWELL           N/A     54  35  48 CALM      29.85F
COEUR D`ALENE  MOSUNNY   46  36  66 SE8       29.88F
MULLAN PASS    FLURRIES  34  27  75 N6        29.80S WCI  29
$$


USA.gov is the U.S. government's official web portal to all federal, state and local government web resources and services.